Location: Newark
(40.9833°N, 0.0333°W)
Time: 01:50:31
(UTC+00:00)

deb Explorer IX - Pass Details

Date: 31 October 2020
Orbit: 537 x 1105 km, 38.8° (Epoch: 02 December)

Event Time Altitude Azimuth Distance (km) Brightness Sun altitude
Rises 07:33:26 0° 274° (W) 3,500 ? 10.1°
Reaches altitude 10° 07:35:53 10° 272° (W) 2,639 ? 10.5°
Maximum altitude 07:42:17 67° 191° (SSW) 1,104 ? 11.5°
Drops below altitude 10° 07:49:26 10° 111° (ESE) 2,927 ? 12.7°
Sets 07:52:17 0° 109° (ESE) 3,907 ? 13.1°
